Find Starlink 5995

NORAD ID: 56456 Int'l Des: 2023-064 Owner: SPXS Country: US Constellation: starlink operational
LEOCIRCULAR

現在のビュー

3D地球を読み込み中...

About Starlink 5995

Starlink 5995 (NORAD 56456) is a starlink constellation satellite (v1.5) launched May 10, 2023 by SPXS of US. It operates in LEO, CIRCULAR orbit with a mass of 305.00 kg.

Starlink 5995について

説明を読み込み中...

次回通過

Passes for default location (London). Set your location on the main map for personalized predictions.

高度履歴

Loading altitude history...

軌道要素

1 56456U 23064J 26171.35776162 .00000328 00000-0 35285-4 0 9995
2 56456 69.9988 245.6322 0003551 269.0302 91.0450 14.98330190170620
Epoch: Jun 20, 2026 • Age: 9 hours

現在のステータス

高度 585.9 km
速度 7.57 km/s
衛星直下点 -42.22°S, 89.09°W
打ち上げ日 May 10, 2023
運用期間 3.1 years
タイプ internet

技術仕様

分類 Payload
質量 305.00 kg
乾燥質量 290.00 kg
総質量 305.00 kg
長さ 0.20 m
直径 2.80 m
スパン 9.00 m
形状 Box + pan
製造者 SPXS
バスタイプ Starlink
フェーズステータス In Orbit
所有者/国 SPXS/US

Most Searched